Location: Pinawa
(50.1500°N, 95.8830°W)
Time: 01:59:05
(UTC-05:00)

Daily predictions for brighter satellites

Satellite Brightness Start Highest point End
(mag) Time Altitude Azimuth Time Altitude Azimuth Time Altitude Azimuth
Cosmos 2084 4.4 00:01:09 10° WSW 00:04:53 43° NW 00:08:33 10° NE
Cosmos 1354 Rocket 4.2 00:01:41 20° S 00:05:10 54° ESE 00:10:17 10° NNE
CZ-3A R/B 2.1 00:04:16 10° WNW 00:04:18 11° WNW 00:04:18 11° WNW
ERBS 3.5 00:04:59 10° WNW 00:07:55 27° SW 00:08:45 24° SSW
Cosmos 2084 Rocket 4.3 00:04:28 10° NW 00:08:05 39° NE 00:11:30 11° ESE
DELTA 2 DEB (DPAF) 4.5 00:08:06 21° S 00:10:56 60° WSW 00:15:22 10° NNW
Cosmos 2034 Rocket 4.2 00:06:22 10° N 00:12:44 66° ENE 00:17:05 21° SSE
COSMOS 2406 3.9 00:08:51 10° NNW 00:14:22 49° NE 00:19:02 14° SE
Terra 3.4 00:10:53 11° SSW 00:14:41 27° W 00:18:45 10° NW
Cosmos 1486 Rocket 4.3 00:13:46 10° SSW 00:19:01 69° WNW 00:24:20 10° NNE
deb Chang Zheng 4 4.3 00:16:20 10° N 00:20:34 51° WNW 00:24:29 12° SW
Cosmos 1891 Rocket 4.4 00:15:10 10° N 00:21:19 82° E 00:25:20 23° SSE
Meteor 2-10 Rocket 4.4 00:18:23 10° N 00:23:24 42° ENE 00:27:04 18° SE
Cosmos 1626 2.9 00:20:51 17° SSW 00:23:26 48° WNW 00:27:05 10° N
CZ-4C R/B 3.4 00:22:54 20° SE 00:24:38 23° ESE 00:29:07 10° ENE
Cosmos 2263 Rocket 2.1 00:20:31 14° SSW 00:25:24 86° ESE 00:31:02 10° NNE
ALOS 2 2.9 00:23:03 24° SE 00:25:33 60° ENE 00:29:54 10° N
Cosmos 1869 3.3 00:26:14 10° NNW 00:30:13 79° W 00:32:05 30° S
Sich 1 3.0 00:30:17 28° S 00:32:26 66° E 00:36:41 10° NNE
Cosmos 1707 Rocket 3.7 00:29:48 10° NNW 00:34:15 67° W 00:36:41 26° S
CZ-4B R/B 3.9 00:32:00 10° ESE 00:34:16 17° ENE 00:36:34 10° NNE
ATLAS 5 CENTAUR R/B 3.8 00:32:43 10° W 00:37:10 33° NNW 00:42:05 10° NE
Cosmos 1464 Rocket 4.2 00:34:39 10° NNW 00:40:43 64° W 00:44:51 21° S
Cosmos 1400 Rocket 3.7 00:41:35 26° SE 00:43:12 37° E 00:47:02 10° NNE
Cosmos 1455 3.8 00:42:34 10° NNW 00:45:54 27° W 00:47:56 17° SW
Cosmos 1634 Rocket 4.4 00:45:52 10° N 00:51:55 54° ENE 00:56:07 20° SE
Cosmos 1666 Rocket 3.7 00:51:48 26° SSW 00:54:19 75° W 00:58:48 10° N
Cosmos 1862 Rocket 3.6 00:53:29 10° N 00:57:51 72° ENE 01:00:01 29° SSE
Cosmos 1844 Rocket 3.3 00:57:52 25° SSE 01:00:30 41° ESE 01:05:43 10° NE
Cosmos 1933 Rocket 3.8 01:01:51 30° SSE 01:03:48 55° E 01:08:05 10° NNE
Cosmos 1346 Rocket 4.3 01:03:50 10° N 01:07:17 29° ENE 01:09:34 17° ESE
USA 234 4.0 01:02:47 10° ENE 01:09:10 57° NNW 01:15:32 10° W
In-Cosmos 22 Rocket 4.4 01:08:49 26° SSE 01:11:49 61° E 01:17:21 10° NNE
Tsikada Rocket 4.0 01:08:11 23° S 01:12:23 86° W 01:18:46 10° N
CZ-4C R/B 3.1 01:11:16 36° SE 01:12:26 63° ENE 01:15:42 10° N
CZ-2C R/B 3.8 01:09:06 24° SSW 01:12:29 51° W 01:18:03 10° NNW
Cosmos 1633 Rocket 3.4 01:10:53 25° SSW 01:13:16 58° WNW 01:17:36 10° N
Cosmos 1892 3.6 01:16:20 27° SE 01:17:48 38° E 01:21:27 10° NNE
Cosmos 2242 Rocket 4.3 01:18:12 10° NNW 01:22:36 46° W 01:24:47 26° SSW
SAR-Lupe-2 3.8 01:22:19 31° SE 01:23:49 63° ENE 01:27:24 10° N
SL-27 R/B 3.2 01:20:48 10° N 01:24:02 43° ENE 01:25:39 24° ESE
Cosmos 1703 Rocket 3.9 01:24:33 10° N 01:29:01 60° ENE 01:31:27 26° SSE
SeaSat 1 4.1 01:28:18 10° ESE 01:32:39 32° NE 01:37:02 10° NNW
Cosmos 1606 4.3 01:30:08 10° N 01:33:36 29° ENE 01:36:01 16° SE
CZ-2C R/B 3.2 01:28:27 10° N 01:33:41 53° WNW 01:37:21 19° SW
Cosmos 968 Rocket 3.6 01:33:51 23° SSW 01:37:08 78° WNW 01:42:27 10° NNE
Cosmos 1470 Rocket 3.9 01:39:03 26° SSW 01:41:21 58° WNW 01:45:46 10° N
H-2A R/B 3.7 01:37:21 10° NNE 01:41:32 35° E 01:43:43 22° SE
Meteor 1-26 Rocket 4.3 01:38:34 10° NNW 01:44:05 66° W 01:47:10 26° S
Cosmos 2084 Rocket 4.0 01:44:05 10° WNW 01:47:29 31° WSW 01:48:01 30° SW
Cosmos 2278 Rocket 2.9 01:45:15 24° SSE 01:48:09 41° ESE 01:53:24 10° NE
CZ-3B DEB 4.3 01:36:58 10° WNW 01:49:43 82° NNE 02:02:19 10° ESE
Cosmos 1833 Rocket 3.6 01:46:41 10° NNW 01:52:11 48° NE 01:57:38 10° SE
Cosmos 1844 3.7 01:49:47 25° SSW 01:53:07 76° ESE 01:58:44 10° NNE
Okean 1-7 3.1 01:51:30 10° N 01:55:50 76° E 01:58:10 27° SSE
Cosmos 1869 Rocket 3.9 01:54:19 28° SSE 01:56:26 57° E 02:00:43 10° NNE
COSMOS 2406 4.1 01:53:29 10° NW 01:58:31 33° WSW 02:01:03 23° SSW
Cosmos 923 Rocket 4.0 01:54:34 10° NNW 01:59:47 74° WSW 02:02:54 25° S
Cosmos 1689 Rocket 2.4 01:59:56 42° SSW 02:00:40 55° W 02:03:46 10° NNW
Cosmos 1461 3.9 02:03:33 25° SSE 02:04:42 29° ESE 02:08:12 10° ENE
Cosmos 2279 Rocket 4.0 01:58:30 10° NNW 02:04:48 80° W 02:08:54 23° S
CZ-4B R/B 2.0 02:05:33 34° SW 02:06:36 45° W 02:10:02 10° NNW
Meteor 1-10 Rocket 4.3 02:03:36 10° N 02:09:23 82° ENE 02:13:33 20° SSE
Cosmos 2263 Rocket 4.2 02:05:39 10° W 02:10:04 23° NW 02:14:32 10° NNE
SL-16 R/B 4.3 02:06:04 10° ESE 02:11:16 29° ENE 02:16:29 10° N
CZ-4C R/B 2.3 02:08:02 17° SW 02:12:21 78° NW 02:18:40 10° NE
Cosmos 1315 Rocket 3.4 02:10:28 25° SW 02:12:22 46° WNW 02:16:12 10° N
Landsat 5 4.0 02:12:56 28° SSW 02:14:45 44° W 02:18:45 10° NNW
Exosat Rocket 4.3 02:09:43 10° NNW 02:14:54 59° ENE 02:21:30 10° SE
Cosmos 2082 Rocket 2.4 02:11:32 10° NNW 02:17:11 72° ENE 02:22:48 10° SE
Cosmos 192 4.3 02:13:21 10° NNW 02:18:19 77° WSW 02:21:33 22° SSE
PSLV R/B 4.0 02:15:33 10° NNE 02:19:51 57° E 02:22:20 24° S
Cosmos 1733 Rocket 4.3 02:19:01 16° SE 02:21:53 32° E 02:25:47 10° NNE
Cosmos 1862 4.5 02:20:10 19° SSE 02:22:33 36° E 02:26:17 10° NNE
Meteor 2-3 Rocket 4.0 02:19:12 22° SSW 02:22:58 62° WNW 02:28:46 10° N
Cosmos 1825 2.6 02:21:09 27° SSE 02:23:00 56° E 02:26:46 10° NNE
Cosmos 1782 2.9 02:23:42 10° NNW 02:27:44 65° W 02:29:44 28° S
Abrixas 2.3 02:29:28 50° S 02:29:37 50° S 02:32:17 10° E
Cosmos 2112 Rocket 4.1 02:24:44 10° NNW 02:29:57 63° WSW 02:33:24 21° S
ATLAS 3B R/B 4.0 02:28:26 15° SSE 02:33:19 30° ESE 02:39:23 10° NE
Cosmos 44 4.5 02:32:00 18° SSE 02:34:15 27° ESE 02:38:01 10° ENE
Cosmos 1408 2.5 02:34:05 30° S 02:35:46 83° E 02:39:25 10° NNE
Meteor 2-6 Rocket 4.2 02:31:59 10° NNW 02:37:28 68° W 02:41:20 21° S
Meteor 1-27 Rocket 3.9 02:32:24 10° NNW 02:38:23 85° ENE 02:43:19 16° SSE
Cosmos 1680 Rocket 4.0 02:37:44 10° NW 02:42:43 43° WSW 02:45:44 22° SSW
Cosmos 1346 Rocket 4.0 02:40:19 10° NW 02:43:37 26° W 02:45:05 21° SW
Cosmos 44 Rocket 4.0 02:41:11 21° S 02:43:51 39° ESE 02:48:18 10° NE
Cosmos 1844 Rocket 3.7 02:39:30 12° WSW 02:44:26 41° NW 02:49:43 10° NNE
Helios 1A Rocket 3.3 02:40:48 10° NNE 02:44:53 57° E 02:47:25 22° S
Cosmos 1674 Rocket 3.9 02:42:41 10° N 02:47:09 65° ENE 02:50:50 14° SSE
Timation 1 Rocket 4.3 02:43:06 21° SSW 02:47:14 82° ESE 02:53:15 10° NNE
Timation 2 Rocket 4.0 02:41:15 10° NNW 02:47:19 80° ENE 02:53:32 10° SE
PSLV R/B 3.9 02:45:25 20° SSE 02:48:18 87° W 02:52:30 10° NNW
USA 234 4.2 02:45:23 10° ENE 02:51:39 50° N 02:57:55 10° WNW
Cosmos 1937 Rocket 4.3 02:49:53 16° SSE 02:53:35 41° ESE 02:58:24 10° NE
Resurs 1-4 Rocket 3.8 02:50:18 10° NE 02:54:41 25° E 02:59:01 10° SSE
SL-27 R/B 4.4 02:57:02 10° WNW 02:58:53 14° W 02:59:18 14° WSW
BREEZE M DEB (TANK) 2.9 02:59:11 28° S 02:59:42 30° SSE 03:01:44 10° E
BREEZE-M R/B 3.8 02:54:00 10° W 03:03:28 80° SSW 03:07:46 10° ESE
Cosmos 1092 Rocket 4.0 03:01:33 17° S 03:06:35 87° E 03:12:53 10° N
Cosmos 1898 Rocket 3.6 03:03:10 19° S 03:06:56 71° ESE 03:12:11 10° NNE
Cosmos 1378 Rocket 4.0 03:04:31 10° N 03:08:49 61° ENE 03:13:07 10° SSE
Cosmos 1606 4.1 03:06:03 10° NNW 03:09:18 26° W 03:11:04 18° SW
SeaSat 1 2.6 03:05:50 14° S 03:10:01 53° WSW 03:14:52 10° NW
CZ-2D R/B 3.5 03:05:29 10° NNE 03:10:19 33° E 03:15:09 10° SSE
Cosmos 1607 4.0 03:08:10 18° SSW 03:12:53 70° SE 03:19:10 10° NE
Cosmos 1340 2.9 03:11:55 10° NNW 03:15:36 51° W 03:18:02 19° SSW
ARIANE 5 R/B 3.9 03:11:14 10° NNE 03:15:40 31° E 03:20:05 10° SSE
H-2A R/B 3.9 03:12:58 10° N 03:17:01 32° WNW 03:20:19 14° WSW
Cosmos 2026 Rocket 4.2 03:13:40 12° S 03:19:13 68° E 03:25:15 10° NNE
SL-08 R/B 3.4 03:18:18 12° S 03:22:43 70° WSW 03:27:31 10° NNW
CBERS-1 4.1 03:18:07 10° NNE 03:23:18 75° ESE 03:27:43 14° S
Genesis I 3.6 03:21:01 15° WSW 03:24:06 57° NW 03:28:01 10° NE
USA 238 DEB 4.5 03:18:44 13° S 03:24:25 43° ESE 03:30:57 10° NE
USA 238 4.5 03:18:50 13° S 03:24:32 43° ESE 03:31:03 10° NE
IRS-1D 4.5 03:21:00 10° NNE 03:25:52 41° E 03:30:37 10° SSE
Cosmos 2278 Rocket 3.1 03:27:04 11° WSW 03:32:14 42° NW 03:37:37 10° NNE
IRS-P3 4.2 03:28:17 10° NNE 03:33:39 81° WNW 03:38:19 14° SSW
COSMOS 2487 3.5 03:32:10 10° NW 03:35:17 28° WSW 03:37:16 17° SSW
Cosmos 1833 Rocket 3.4 03:30:54 10° NW 03:35:58 34° WSW 03:40:32 12° SSW
NPP 3.7 03:30:37 10° NNE 03:36:03 83° WNW 03:40:50 13° SSW
GP-B 3.3 03:33:47 10° N 03:38:10 60° W 03:41:55 14° SSW
Cosmos 1346 4.1 03:35:37 10° N 03:38:14 39° ENE 03:40:48 10° SE
Cosmos 1437 2.9 03:38:39 10° N 03:41:56 73° ENE 03:45:09 10° SSE
Cosmos 2369 Rocket 3.8 03:37:52 10° SSE 03:42:31 28° ESE 03:47:13 10° NE
Cosmos 405 Rocket 4.1 03:39:21 10° N 03:43:11 41° ENE 03:46:57 10° SE
Cosmos 1461 3.8 03:40:00 10° WSW 03:43:44 40° NW 03:47:34 10° NNE
CZ-3B DEB 4.2 03:31:13 10° WNW 03:44:00 61° SW 03:55:13 10° SSE
Cosmos 1655 Rocket 4.1 03:40:53 10° S 03:47:10 85° E 03:53:27 10° N
UNK 3.8 03:43:35 10° S 03:48:14 74° WSW 03:52:57 10° NNW
Cosmos 1812 2.7 03:45:03 10° N 03:48:56 89° W 03:52:48 10° S
Cosmos 1975 Rocket 3.0 03:45:54 10° N 03:50:16 90° SW 03:54:37 10° S
Cosmos 2297 4.1 03:46:52 12° SW 03:52:04 58° NW 03:57:41 10° NNE
Cosmos 2298 Rocket 4.3 03:48:05 13° SW 03:52:49 64° WNW 03:58:07 10° NNE
SL-16 R/B 2.6 03:48:16 10° S 03:54:27 66° WSW 04:00:43 10° NNW
USA 267 4.4 03:51:07 10° ENE 03:56:53 32° SE 04:02:35 10° SSW
Cosmos 1825 4.4 03:56:44 10° W 03:58:58 15° WNW 04:01:13 10° NNW
Cosmos 1733 Rocket 4.3 03:56:07 11° SW 03:59:42 29° WNW 04:03:33 10° N
Cosmos 2082 Rocket 3.5 03:56:32 10° NW 04:00:42 22° W 04:04:46 10° SSW
CZ-4C R/B 4.1 03:56:46 10° W 04:01:53 31° NNW 04:07:42 10° NE
Abrixas 2.3 04:01:34 10° W 04:04:15 53° S 04:06:57 10° ESE
ADEOS Rocket 3.6 03:56:39 10° NNE 04:04:25 76° WNW 04:11:38 10° SSW
Cosmos 158 Rocket 4.0 03:59:27 10° NNW 04:04:40 88° ENE 04:09:41 10° SSE
USA 161 3.7 04:02:37 10° SE 04:04:41 24° ENE 04:06:53 10° NNE
Cosmos 2150 Rocket 4.4 03:59:34 11° SW 04:04:43 59° WNW 04:10:07 10° NNE
Meteor 1-25 Rocket 4.4 04:02:15 10° S 04:07:49 80° E 04:13:30 10° NNE
Meteor 1-14 Rocket 4.4 04:03:17 10° SSW 04:09:14 80° WNW 04:15:17 10° N
Cosmos 1536 Rocket 4.5 04:08:25 10° N 04:12:51 53° ENE 04:17:14 10° SSE
Cosmos 2344 4.3 04:06:48 10° S 04:14:03 49° ESE 04:22:20 10° NE
Cosmos 44 3.6 04:10:44 10° WSW 04:15:14 52° NW 04:19:35 10° NNE
BREEZE-M DEB (TANK) 4.2 04:13:28 10° W 04:18:56 26° SW 04:21:45 10° SSE
Sich 1 Rocket 4.3 04:16:23 10° SW 04:20:44 42° WNW 04:25:06 10° N
S3M 4.2 04:16:02 10° NNW 04:22:05 55° W 04:28:02 10° SSW
Cosmos 2266 Rocket 4.3 04:16:15 10° S 04:22:38 74° E 04:29:00 10° NNE
ADEOS 3.6 04:17:32 10° NNE 04:22:48 81° WNW 04:28:01 10° SSW
ATLAS 3B R/B 3.0 04:16:04 10° SW 04:23:32 80° NW 04:30:40 10° NE
ATLAS CENTAUR R/B 4.1 04:05:42 10° SW 04:24:19 89° NNW 04:30:00 10° ENE
Cosmos 1048 Rocket 4.1 04:19:30 10° NNW 04:24:51 65° WSW 04:30:11 10° S
Cosmos 44 Rocket 4.2 04:20:48 10° WSW 04:25:23 42° NW 04:29:55 10° NNE
MOZ.5/SAFIR/RUBIN 5/SL-8 3.8 04:20:51 10° S 04:25:35 72° WSW 04:30:21 10° NNW
Okean 1 3.5 04:27:01 10° NNW 04:31:01 55° W 04:34:58 10° S
